Wind_Speed
13 12 12 11 11 11 11 12 12 13 15 16 18 20 21 22 23 23 24 24 24 24 24 25 25 26 26 27 27 27 28 29 29 30 30 31 31 32 32 33 33 33 33
11 10 10 9 10 9 10 11 12 14 16 18 20 21 23 24 24 24 24 24 24 24 24 24 25 25 26 27 27 28 28 29 29 30 30 31 32 33 33 34 34 34 34
9 8 8 9 9 10 11 12 15 17 19 21 22 23 24 25 25 25 24 24 24 24 24 24 25 25 26 27 28 28 29 29 30 30 31 32 33 33 34 34 35 35 36
6 6 7 8 9 10 12 14 16 19 20 22 23 23 24 24 24 24 24 23 23 23 23 23 24 25 26 27 28 28 29 30 30 31 31 32 33 34 34 35 36 36 36
4 6 8 9 10 12 14 16 18 20 21 22 22 22 23 23 23 23 23 23 22 22 22 23 24 25 26 27 28 29 29 30 31 31 32 33 33 34 35 36 37 37 37
6 7 9 11 12 14 15 17 19 20 21 21 21 21 22 22 22 22 22 22 23 23 23 24 25 26 27 27 28 29 30 30 31 32 32 33 34 35 36 37 38 38 39
9 10 11 12 14 15 16 18 19 20 20 20 21 21 21 21 22 22 22 23 24 25 25 26 26 27 28 28 29 30 31 32 32 33 34 35 35 36 37 38 38 39 40
11 12 13 13 14 16 17 18 19 19 20 20 21 21 22 22 23 23 24 25 25 26 27 27 28 28 29 30 31 31 32 33 33 34 35 36 37 37 38 39 40 40 40
13 14 14 15 16 17 18 18 19 19 20 21 22 23 23 24 24 25 25 26 27 28 29 29 30 31 31 31 32 32 33 33 34 35 36 37 37 38 39 39 40 41 41
14 14 15 16 17 17 18 19 19 20 21 22 23 24 24 25 26 26 27 28 29 30 30 31 31 32 33 33 33 33 33 34 34 35 36 36 37 38 39 39 40 41 42
14 15 16 16 17 18 18 19 19 21 22 23 24 25 26 27 28 28 29 29 30 31 32 33 34 34 34 34 34 34 34 35 35 35 36 36 37 38 38 39 40 40 41
14 15 16 17 17 18 18 19 20 22 23 25 26 27 28 29 29 30 31 31 32 33 34 35 36 36 36 36 36 36 36 36 36 37 37 37 37 38 39 39 40 41 41
15 15 16 17 18 18 19 20 21 23 25 26 27 28 30 31 31 32 33 34 35 36 37 37 38 38 38 37 37 37 37 37 37 37 37 37 37 37 38 40 40 41 42
15 16 16 17 18 19 20 21 23 25 26 28 29 30 31 32 33 34 35 37 38 38 39 40 40 40 39 38 38 38 38 37 37 36 36 36 37 37 38 39 40 41 42
16 16 17 18 19 20 21 23 24 26 28 29 30 31 33 34 35 36 38 39 40 41 41 41 41 40 39 38 38 38 37 37 37 37 37 37 37 38 39 39 40 41 42
17 17 18 19 20 21 23 24 26 27 29 30 31 33 34 36 37 39 40 41 42 42 43 42 41 40 40 39 39 38 37 36 36 36 36 37 37 38 39 40 41 42 43
18 18 19 20 22 23 24 26 27 29 30 32 33 34 36 38 40 41 42 43 43 44 43 42 41 40 40 39 39 37 36 35 35 35 35 36 37 37 38 39 40 42 43
19 20 21 22 23 24 26 27 28 30 31 33 34 36 38 40 41 43 44 44 44 44 43 42 41 40 40 39 38 36 35 34 34 34 33 34 35 36 37 38 39 40 42
20 21 22 23 25 26 27 28 30 31 33 34 36 37 39 41 43 44 45 45 45 44 43 42 41 40 39 38 36 34 33 33 33 33 33 32 33 34 35 37 38 39 41
21 22 23 24 26 27 29 30 32 33 34 35 37 38 40 43 44 45 46 46 45 44 43 42 41 39 37 36 35 34 33 32 32 32 32 32 32 33 34 35 37 39 41
23 24 25 26 28 29 30 32 33 34 35 36 38 40 42 44 46 47 47 46 45 43 42 41 40 38 36 35 34 33 33 32 31 31 31 31 31 32 33 35 36 37 39
26 27 28 29 31 32 33 34 35 36 37 37 39 42 44 46 48 48 47 46 44 43 41 39 38 37 35 34 33 33 32 30 29 29 29 29 29 30 31 32 33 35 36
29 30 32 33 34 35 35 36 37 38 39 40 42 43 46 47 48 48 47 46 45 42 40 38 37 35 35 33 32 32 31 30 28 28 27 27 27 27 27 28 29 31 34
32 33 34 35 36 37 38 38 40 41 42 44 44 45 47 48 48 48 47 46 44 41 40 38 36 35 34 33 32 31 30 28 27 26 26 25 24 24 23 23 24 26 30
34 35 37 39 39 40 41 42 42 43 45 46 47 47 48 48 48 48 47 45 43 41 39 37 35 34 33 32 31 30 28 27 26 25 24 23 21 20 21 21 21 23 26
37 38 40 41 42 43 44 45 45 46 47 48 48 49 49 49 49 48 47 45 42 40 38 36 35 33 32 31 30 29 27 26 25 23 22 20 19 19 19 19 20 21 23
Wind_Direction
264 271 275 280 285 294 300 304 308 311 311 309 307 306 307 307 306 305 303 300 297 295 292 289 287 284 282 280 278 277 275 272 270 268 266 264 262 260 256 254 252 251 249
264 271 277 285 292 301 307 312 314 314 314 312 312 311 311 310 309 308 306 303 301 298 295 293 289 286 284 281 279 277 275 273 270 268 265 263 261 259 257 254 252 251 249
266 273 288 297 303 309 313 316 318 317 316 315 314 313 312 311 310 309 308 306 303 300 298 295 292 289 286 284 281 279 276 274 271 268 265 263 261 259 256 254 252 250 248
280 292 303 309 314 316 318 319 318 318 316 315 314 314 313 312 311 311 310 309 307 305 303 300 296 293 291 288 284 281 279 276 273 270 266 263 260 258 256 253 252 250 248
302 310 314 317 319 319 319 319 318 317 316 315 314 314 313 312 311 311 310 310 309 308 306 304 301 298 295 292 288 284 281 279 276 273 269 265 261 258 255 253 252 251 249
329 324 322 320 320 320 318 316 317 316 315 315 315 315 314 313 312 311 310 310 310 309 308 306 304 301 298 294 291 288 284 281 278 275 272 268 263 259 256 253 252 251 249
329 324 320 318 317 316 314 314 316 316 316 316 316 316 316 315 314 314 313 312 311 310 309 308 305 303 300 296 293 290 286 283 280 276 273 270 265 261 257 253 251 250 249
322 319 316 315 313 312 313 314 316 316 317 317 318 317 317 316 316 315 313 312 312 311 310 308 306 303 301 298 295 292 288 284 281 278 274 270 266 262 258 254 251 249 248
316 314 313 312 310 310 312 313 314 316 317 318 320 320 319 318 317 315 314 313 313 312 310 309 308 305 302 300 297 293 290 286 283 280 276 272 267 263 259 255 251 249 246
310 308 306 306 306 307 309 311 313 316 318 319 322 323 323 322 320 318 316 315 314 313 312 311 309 307 304 301 298 295 292 288 284 281 277 273 268 264 260 256 252 249 246
302 301 302 303 303 305 307 311 314 317 320 322 323 324 324 323 322 321 320 319 317 316 314 312 310 308 305 302 299 296 293 290 285 281 277 273 268 265 260 256 252 249 245
299 299 300 301 302 305 309 312 316 319 322 324 325 325 325 325 324 323 322 320 319 317 315 313 311 308 306 303 300 296 293 289 285 281 277 273 269 264 260 256 253 249 246
298 298 300 302 304 307 311 315 319 322 324 325 326 326 326 326 325 325 323 321 319 317 316 314 311 309 307 304 300 297 293 289 285 280 276 273 269 265 261 257 253 250 247
299 300 301 304 306 310 313 317 321 324 325 326 327 327 326 326 326 325 323 321 319 317 316 315 312 310 307 305 301 298 294 290 285 281 277 273 269 265 262 258 255 252 249
301 302 303 305 307 311 315 319 323 325 326 327 327 327 327 326 326 325 324 322 320 318 316 315 313 311 308 305 302 299 295 292 287 282 278 274 269 266 263 260 256 253 249
303 303 304 306 309 313 316 320 323 325 326 326 326 326 326 326 325 324 323 322 320 318 317 316 314 312 309 306 303 299 296 293 289 284 280 275 270 267 264 260 257 253 249
302 303 304 307 310 314 317 320 322 324 325 326 325 325 325 326 326 325 324 323 321 320 318 317 315 313 310 307 304 301 298 295 291 287 282 277 272 268 265 261 256 252 248
300 302 304 307 310 313 317 319 321 323 324 324 324 324 324 325 325 325 324 323 322 321 320 318 316 314 311 309 306 302 299 296 293 290 286 280 275 271 266 261 257 252 248
300 302 305 307 309 313 315 317 319 321 322 323 323 324 325 326 326 325 325 324 323 322 321 319 317 316 314 311 308 304 301 298 295 292 288 283 277 272 267 262 258 254 249
301 303 305 307 309 312 314 316 319 320 320 321 323 324 326 327 327 327 326 325 324 323 321 320 319 317 316 313 310 307 304 301 298 294 289 284 279 274 268 263 259 255 250
302 304 305 307 309 310 312 315 318 319 319 320 322 325 327 327 327 327 326 325 325 324 322 321 320 319 317 314 312 310 307 303 300 297 291 286 281 275 270 266 260 255 249
304 305 306 307 308 309 311 314 317 318 318 320 321 323 326 327 327 327 327 326 326 325 324 323 322 320 318 316 315 313 310 306 303 300 295 290 285 279 274 268 261 255 248
304 305 307 308 309 310 310 313 315 316 317 318 320 322 324 326 327 327 326 326 326 325 324 324 324 322 320 318 317 315 313 309 306 304 300 295 289 284 278 271 263 255 248
304 305 306 307 308 309 309 310 312 314 316 317 319 321 323 324 325 325 325 326 326 325 325 325 325 324 322 320 319 318 315 313 311 308 305 299 294 286 279 272 264 256 248
302 303 305 305 306 307 308 309 310 312 314 316 317 319 321 322 323 324 325 325 325 325 325 325 325 324 324 322 321 320 317 315 313 311 308 304 297 290 284 275 266 258 251
300 300 302 304 305 306 307 306 308 310 312 314 315 316 317 320 321 323 324 324 323 323 324 324 325 325 324 324 323 322 320 318 316 313 312 308 300 293 287 278 271 263 255
Height
5869 5869 5870 5870 5869 5868 5867 5866 5865 5863 5861 5859 5857 5855 5853 5850 5847 5844 5841 5839 5837 5835 5833 5831 5830 5828 5827 5826 5825 5824 5823 5823 5823 5823 5823 5824 5824 5825 5826 5827 5829 5830 5832
5865 5866 5867 5867 5866 5865 5864 5863 5862 5860 5858 5855 5853 5850 5847 5844 5841 5838 5836 5833 5831 5828 5826 5825 5823 5821 5820 5819 5818 5817 5816 5815 5815 5815 5815 5816 5817 5817 5818 5819 5820 5822 5824
5862 5863 5864 5863 5863 5862 5861 5860 5858 5856 5853 5851 5848 5845 5842 5839 5836 5833 5830 5827 5825 5823 5820 5818 5816 5814 5813 5811 5810 5809 5808 5807 5807 5807 5807 5807 5807 5808 5810 5810 5811 5813 5815
5861 5861 5861 5861 5860 5859 5858 5856 5854 5852 5849 5846 5843 5840 5837 5834 5831 5827 5825 5822 5819 5817 5814 5812 5810 5808 5805 5804 5802 5801 5799 5799 5798 5798 5798 5798 5798 5799 5800 5802 5802 5804 5806
5859 5859 5859 5858 5858 5856 5854 5853 5850 5848 5845 5842 5839 5836 5833 5829 5826 5823 5820 5817 5814 5811 5809 5806 5803 5801 5798 5796 5794 5792 5791 5790 5789 5788 5788 5789 5789 5789 5791 5792 5793 5794 5796
5858 5857 5857 5856 5855 5853 5851 5849 5847 5845 5842 5839 5836 5832 5829 5825 5822 5819 5816 5812 5809 5806 5803 5800 5797 5794 5791 5789 5786 5784 5782 5781 5780 5779 5778 5779 5779 5780 5781 5782 5783 5784 5786
5856 5855 5854 5853 5852 5850 5849 5847 5844 5841 5838 5835 5832 5828 5825 5821 5818 5814 5811 5807 5803 5800 5797 5794 5790 5787 5784 5781 5778 5776 5774 5772 5770 5769 5768 5768 5768 5769 5770 5772 5773 5774 5776
5854 5853 5852 5850 5849 5847 5845 5843 5841 5838 5835 5831 5828 5824 5820 5817 5813 5809 5805 5801 5797 5794 5790 5786 5783 5779 5776 5773 5770 5767 5764 5762 5760 5759 5758 5757 5757 5758 5759 5760 5762 5764 5766
5851 5850 5849 5847 5846 5844 5842 5840 5837 5834 5831 5827 5824 5820 5815 5811 5807 5803 5799 5795 5791 5787 5783 5779 5775 5771 5767 5764 5760 5757 5755 5752 5750 5748 5747 5746 5746 5746 5747 5748 5750 5753 5755
5849 5848 5846 5845 5843 5841 5839 5836 5834 5830 5827 5823 5819 5814 5810 5806 5802 5797 5793 5788 5784 5780 5775 5771 5766 5762 5758 5754 5751 5747 5744 5742 5739 5737 5736 5735 5734 5734 5735 5736 5738 5741 5743
5847 5845 5844 5842 5840 5838 5835 5833 5830 5826 5822 5818 5814 5809 5805 5800 5796 5791 5786 5781 5776 5772 5767 5762 5757 5753 5749 5744 5741 5737 5734 5731 5728 5726 5724 5723 5722 5722 5723 5724 5726 5729 5731
5844 5843 5841 5839 5837 5834 5831 5829 5825 5821 5817 5813 5808 5804 5799 5794 5789 5784 5779 5774 5769 5764 5758 5753 5748 5743 5739 5734 5730 5726 5723 5720 5717 5714 5713 5711 5710 5710 5711 5712 5714 5716 5719
5841 5839 5837 5835 5833 5830 5827 5824 5820 5816 5812 5807 5802 5797 5792 5787 5782 5777 5772 5766 5761 5755 5750 5744 5739 5733 5728 5723 5719 5715 5711 5708 5705 5702 5700 5699 5698 5698 5698 5700 5701 5704 5707
5837 5835 5833 5831 5828 5825 5822 5819 5815 5810 5806 5801 5796 5791 5786 5781 5775 5770 5764 5758 5752 5746 5740 5735 5729 5723 5717 5712 5707 5703 5699 5695 5692 5690 5688 5686 5686 5685 5686 5687 5689 5691 5694
5833 5831 5829 5826 5823 5820 5817 5813 5809 5805 5800 5795 5790 5785 5779 5774 5768 5762 5756 5750 5744 5737 5731 5724 5718 5712 5706 5701 5696 5691 5687 5683 5680 5677 5675 5674 5673 5673 5673 5674 5676 5678 5681
5828 5826 5824 5821 5818 5815 5811 5807 5803 5799 5794 5789 5784 5778 5772 5766 5760 5754 5748 5741 5734 5727 5721 5714 5707 5701 5695 5690 5685 5680 5675 5671 5668 5665 5662 5660 5660 5659 5660 5661 5662 5665 5668
5823 5821 5818 5815 5812 5809 5805 5801 5797 5792 5787 5782 5777 5771 5765 5759 5753 5746 5739 5732 5725 5718 5711 5704 5697 5690 5684 5679 5673 5668 5663 5659 5656 5652 5649 5647 5646 5646 5646 5647 5648 5651 5654
5818 5815 5813 5810 5807 5803 5799 5795 5790 5786 5781 5775 5770 5764 5758 5751 5744 5737 5730 5723 5715 5708 5701 5693 5686 5680 5674 5668 5662 5657 5652 5648 5644 5640 5637 5635 5633 5632 5632 5633 5635 5637 5640
5812 5810 5807 5804 5800 5796 5792 5788 5783 5779 5773 5768 5762 5756 5750 5743 5736 5729 5721 5713 5706 5698 5691 5683 5676 5670 5663 5657 5651 5646 5641 5637 5633 5629 5625 5623 5620 5619 5619 5620 5621 5623 5626
5806 5803 5800 5797 5794 5790 5785 5781 5776 5771 5766 5760 5755 5748 5742 5735 5728 5720 5712 5704 5696 5688 5681 5674 5666 5660 5654 5647 5641 5636 5631 5627 5622 5618 5614 5611 5609 5607 5606 5606 5608 5610 5612
5800 5797 5794 5790 5787 5783 5778 5774 5769 5764 5758 5752 5746 5740 5733 5726 5719 5711 5703 5695 5687 5679 5672 5665 5657 5651 5644 5638 5632 5626 5621 5616 5611 5607 5603 5600 5597 5595 5594 5594 5594 5596 5598
5792 5789 5786 5783 5779 5775 5771 5766 5761 5756 5750 5744 5738 5731 5725 5717 5709 5702 5694 5686 5678 5670 5663 5656 5649 5642 5635 5629 5623 5617 5611 5606 5601 5597 5593 5589 5586 5584 5582 5581 5582 5582 5585
5785 5782 5778 5775 5771 5767 5762 5757 5752 5747 5741 5735 5729 5722 5715 5708 5700 5692 5685 5677 5669 5662 5655 5647 5641 5634 5627 5620 5614 5609 5603 5597 5592 5588 5583 5580 5576 5574 5572 5571 5570 5571 5573
5777 5774 5770 5766 5762 5758 5753 5748 5743 5738 5732 5726 5719 5712 5705 5698 5691 5683 5675 5668 5660 5653 5646 5639 5633 5626 5619 5613 5606 5600 5595 5589 5584 5580 5575 5571 5568 5565 5563 5561 5561 5561 5563
5768 5765 5761 5757 5753 5748 5744 5738 5733 5728 5722 5716 5709 5702 5695 5688 5681 5674 5666 5659 5652 5645 5639 5632 5625 5619 5612 5606 5599 5593 5587 5582 5577 5572 5568 5564 5560 5557 5555 5554 5553 5554 5555
5759 5755 5751 5747 5743 5738 5733 5728 5723 5717 5712 5706 5699 5692 5685 5678 5671 5664 5658 5650 5644 5637 5631 5624 5618 5612 5605 5599 5593 5587 5581 5576 5570 5566 5561 5557 5554 5551 5549 5548 5547 5546 5547